Regional Weather Roundup
Issued by NWS

Home | Current Version | Previous Version | Graphics & Text | Print | Product List | Glossary On
Versions: 1 2 3 4 5 6 7 8 9 10 11 12 13 14 15 16 17 18 19 20 21 22 23 24 25 26 27 28 29 30 31 32 33 34 35 36 37 38 39 40 41 42 43 44 45 46 47 48 49 50
000
ASUS43 KMKX 281911
RWRWI

WISCONSIN REGIONAL WEATHER ROUNDUP
NATIONAL WEATHER SERVICE MILWAUKEE/SULLIVAN WI
200 PM CDT THU MAY 28 2015

NOTE: "FAIR" INDICATES FEW OR NO CLOUDS BELOW 12,000 FEET WITH NO
SIGNIFICANT WEATHER AND/OR OBSTRUCTIONS TO VISIBILITY.

WIZ001-002-006>008-014>016-023>028-282000-
NORTHWEST WISCONSIN

CITY           SKY/WX    TMP DP  RH WIND       PRES   REMARKS
SUPERIOR ARPT  CLOUDY    44  42  91 NE9G17    30.07F
ASHLAND        MOSUNNY   62  53  72 NE7       30.05F
HAYWARD        MOSUNNY   83  49  30 SW15G29   30.02F HX  81
SIREN          SUNNY     83  49  30 SW13G20   30.01F HX  82
CUMBERLAND     SUNNY     79  50  36 SW18      30.05S
RICE LAKE      SUNNY     83  47  28 SW16      30.06S HX  81
CHETEK         SUNNY     82  54  37 S14G21    30.05F HX  81
LADYSMITH      MOSUNNY   82  54  38 SW14      30.08S HX  81
EAU CLAIRE     MOSUNNY   83  51  33 S15G21    30.05F HX  81
MENOMONIE      MOSUNNY   82  55  39 S12       30.05F HX  81
NEW RICHMOND   SUNNY     82  50  33 S20       30.04S HX  80
OSCEOLA        MOSUNNY   83  51  32 S16       30.04F HX  82
$$

WIZ003>005-009-010-017-018-282000-
NORTH CENTRAL WISCONSIN

CITY           SKY/WX    TMP DP  RH WIND       PRES   REMARKS
MANITOWISH WTR MOSUNNY   80  54  39 S15G21    30.06F HX  80
ARBOR VITAE    MOSUNNY   82  51  34 SW9G18    30.08S HX  81
WOODRUFF       MOSUNNY   82  51  34 SW9G18    30.08S HX  81
RHINELANDER    MOSUNNY   78  55  44 SW12      30.10F
EAGLE RIVER    MOSUNNY   81  47  29 S14G20    30.08F HX  80
LAND O LAKES   MOSUNNY   83  46  27 SW9G18    30.08F HX  81
PHILLIPS       MOSUNNY   80  56  43 SW12G20   30.06F HX  80
TOMAHAWK       PTSUNNY   79  55  43 S5        30.09F
MEDFORD        MOSUNNY   79  60  52 S9        30.09F HX  80
MERRILL        MOSUNNY   81  59  47 SW10      30.10F HX  81
$$

WIZ029-030-035-036-043>047-282000-
CENTRAL WISCONSIN

CITY           SKY/WX    TMP DP  RH WIND       PRES   REMARKS
WAUSAU         MOSUNNY   81  57  43 S12       30.08F HX  81
MOSINEE        MOSUNNY   81  59  47 S12       30.11F HX  81
MARSHFIELD     MOSUNNY   83  54  36 SW16      30.09F HX  82
STEVENS POINT  MOSUNNY   80  57  44 S10       30.10F HX  81
WAUPACA        MOSUNNY   85  57  38 S10       30.11F HX  84
WAUTOMA        MOSUNNY   84  55  36 S7        30.11F HX  83
WISC RAPIDS    MOSUNNY   84  53  34 SW15      30.11F HX  82
CAMP DOUGLAS   PTSUNNY   82  59  44 SW9G20    30.10F HX  82
$$

WIZ011>013-019>022-031-037>040-048>050-282000-
NORTHEAST WISCONSIN

CITY           SKY/WX    TMP DP  RH WIND       PRES   REMARKS
ANTIGO         MOSUNNY   77  61  57 S8        30.12F
SHAWANO        MOSUNNY   83  63  50 S7        30.11F HX  84
OCONTO         SUNNY     78  65  63 E9        30.11F HX  80
STURGEON BAY   SUNNY     73  63  68 S9        30.16F
GREEN BAY      SUNNY     82  64  54 S12       30.12F HX  83
MANITOWOC      SUNNY     72  59  63 S13       30.15F
APPLETON       MOSUNNY   81  57  44 S9        30.13F HX  81
CLINTONVILLE   PTSUNNY   81  61  50 S3        30.10F HX  81
OSHKOSH        MOSUNNY   82  60  47 S10       30.12F HX  82
$$

WIZ032>034-041-042-053>061-282000-
SOUTHWEST WISCONSIN

CITY           SKY/WX    TMP DP  RH WIND       PRES   REMARKS
LA CROSSE      MOSUNNY   84  58  40 S16G23    30.08F HX  83
SPARTA         MOSUNNY   83  51  33 S15       30.10S HX  82
VIROQUA        MOSUNNY   79  57  47 S12       30.13F HX  80
BOSCOBEL       MOSUNNY   83  56  39 S12G17    30.12S HX  82
PRAIRIE DU CHI PTSUNNY   81  52  36 S9G17     30.11S HX  80
PLATTEVILLE    MOSUNNY   80  53  39 S15G21    30.14F HX  80
$$

WIZ056-057-062-063-064-067-068-282000-
SOUTH CENTRAL WISCONSIN

CITY           SKY/WX    TMP DP  RH WIND       PRES   REMARKS
REEDSBURG      MOSUNNY   80  60  51 S12G17    30.12S HX  81
BARABOO/DELLS  MOSUNNY   79  58  48 S13       30.13S HX  80
LONE ROCK      MOSUNNY   80  56  43 S12G22    30.12F HX  80
MINERAL POINT  MOSUNNY   79  54  41 SE13      30.15S
MADISON        PTSUNNY   80  57  45 S15       30.13F HX  80
MIDDLETON      MOSUNNY   82  54  38 S14       30.14F HX  81
WATERTOWN      MOSUNNY  N/A N/A N/A S12       30.14F
MONROE         MOSUNNY   79  54  41 S14G21    30.15F
JANESVILLE     MOSUNNY   81  54  39 S7        30.15F HX  80
$$

WIZ051-052-058>065-066-070>072-282000-
SOUTHEAST WISCONSIN

CITY           SKY/WX    TMP DP  RH WIND       PRES   REMARKS
MILWAUKEE      PTSUNNY   77  58  51 SE15      30.17S
WAUKESHA       MOSUNNY   79  55  44 S6        30.17F
MILWAUKEE/TIMM MOSUNNY   81  54  39 SE12G20   30.16F HX  80
RACINE         MOSUNNY   74  55  51 SE14      30.20S
BURLINGTON     PTSUNNY   78  53  40 SE9       30.16F
KENOSHA        PTSUNNY   77  58  51 SE16      30.18F
FOND DU LAC    MOSUNNY   81  62  52 S10       30.13F HX  82
SHEBOYGAN      MOSUNNY   79  61  53 S13       30.14F HX  80
WEST BEND      MOSUNNY   79  54  41 SE6       30.15S
JUNEAU         PTSUNNY   79  60  52 S12       30.16S HX  80
$$

LSZ147-162-282000-
LAKE SUPERIOR

STATION/POSITION TIME  TEMP    WIND        PRES    WAVE
                       AIR SEA DIR/SP/G            HT/PER
                 (UTC) (F)     (DEG/KT/KT) (MB)    (FT/S)
W MID LAKE BUOY  1850   38 37   40/ 17/ 19   N/A     3/ 4
DEVILS ISLAND    1900   40      40/ 13/ 14   N/A
PORT WING        1800   41      30/ 16/ 18   N/A
SAXON HARBOR     1800   45     330/  5/  6   N/A
$$

LMZ867-665-643>646-282000-
LAKE MICHIGAN

STATION/POSITION TIME  TEMP    WIND        PRES    WAVE
                       AIR SEA DIR/SP/G            HT/PER
                 (UTC) (F)     (DEG/KT/KT) (MB)    (FT/S)
CHAMBERS ISLAND  1800   58     330/  3/  6   N/A
N MID LAKE BUOY  1850   41 37  140/  6/  8   N/A     1
NORTHPORT PIER   1800   49     120/ 10/ 12   N/A
SISTER BAY       1818   73     170/ 12/ 16   N/A
ALGOMA LAKESHORE 1838          170/  2/  5   N/A
KEWAUNEE LAKESHO 1800   52     150/  2/  6   N/A
SHEBOYGAN LAKESH 1900   55     170/ 17/ 18   N/A
PORT WASHINGTON  1840   63     190/  8/ 12   N/A
ATWATER BUOY     1800   56     170/ 14/ 17   N/A
MILWAUKEE LAKESH 1800          140/ 16/ 18   N/A
S MID LAKE BUOY  1850   49 39  150/  8/  8   N/A     0
KENOSHA   LAKESH 1900   60     180/ 10/ 12   N/A
$$

TC  - TEMPERATURE IN CELSIUS
VSB - VISIBILITY IN STATUTE MILES
WCI - WIND CHILL INDEX
HX  - HEAT INDEX



USA.gov is the U.S. government's official web portal to all federal, state and local government web resources and services.